Simultaneous Nadir Overpasses (SNOs) Predictions

Prediction of SNOs between GOES-16 and AQUA Satellite Orbit:

Table of predicted SNOs for the next 14.0 days since TLE Epoch: 10/11/2019
Index Date Time (GOES-16) GOES-16 Lat,Lon AQUA Lat,Lon Distance(km) Time Diff (sec)
1 10/13/2019 18:35:16 -0.00, -75.20 0.10, -74.65 62.57 80
2 10/15/2019 18:23:05 -0.00, -75.21 0.75, -71.70 399.49 80
3 10/16/2019 06:44:20 0.00, -75.21 0.36, -76.85 186.35 80
4 10/18/2019 06:29:29 -0.00, -75.22 -0.29, -73.90 150.78 80
5 10/18/2019 18:50:53 -0.00, -75.22 -0.83, -79.09 439.61 80
6 10/20/2019 06:17:17 0.00, -75.23 -0.89, -70.94 488.04 80
7 10/20/2019 18:38:42 0.00, -75.24 -0.17, -76.14 102.25 80
8 10/22/2019 18:29:10 0.00, -75.25 0.43, -73.18 235.53 80
9 10/23/2019 06:50:26 -0.00, -75.26 0.63, -78.34 350.05 80
10 10/25/2019 06:38:14 -0.00, -75.28 0.03, -75.38 11.58 80




NCC Satellite Simultaneous Nadir Overpasses (SNOs) Prediction Service
